Yuba City, California, United States (95991)
Lat: 39.14N, Lon: 121.62W
Wx Zone: CAZ016
Local Info
Past Weather Observations for Thursday, July 17, 2014

NOTE: This archive is for the closest National Weather Service station to Yuba City. Information may differ from the station used for current weather conditions.

Click here for Long-term Archive

Time Weather Temperature Dewpoint Humidity Pressure Winds Precip Visibility
23:53
Clear
64°F / 18°C 55°F / 13°C 73% 29.92 in
(1013 mb)
SSE 12.7 mph
(SSE 20 kph)
- 10SM
22:53
Clear
66°F / 19°C 55°F / 13°C 68% 29.92 in
(1013 mb)
SSE 11.5 mph
(SSE 19 kph)
- 10SM
21:53
Clear
70°F / 21°C 57°F / 14°C 64% 29.89 in
(1012 mb)
SE 12.7 mph
(SE 20 kph)
- 10SM
20:53
Clear
72°F / 22°C 57°F / 14°C 61% 29.89 in
(1012 mb)
SSE 13.8 mph
(SSE 22 kph)
- 10SM
19:53
Clear
77°F / 25°C 59°F / 15°C 54% 29.86 in
(1011 mb)
SSE 15 mph
(SSE 24 kph)
- 10SM
18:53
Clear
82°F / 28°C 59°F / 15°C 45% 29.83 in
(1010 mb)
SSE 13.8 mph
(SSE 22 kph)
- 10SM
17:53
Clear
86°F / 30°C 57°F / 14°C 38% 29.83 in
(1010 mb)
S 15 mph
(S 24 kph)
- 10SM
16:53
Clear
88°F / 31°C 59°F / 15°C 38% 29.83 in
(1010 mb)
S 16.1 mph
(S 26 kph)
- 10SM
15:53
Clear
90°F / 32°C 57°F / 14°C 33% 29.83 in
(1010 mb)
SSE 11.5 mph
(SSE 19 kph)
- 10SM
14:53
Clear
88°F / 31°C 61°F / 16°C 40% 29.86 in
(1011 mb)
SSE 12.7 mph
(SSE 20 kph)
- 10SM
13:53
Clear
88°F / 31°C 61°F / 16°C 40% 29.89 in
(1012 mb)
S 9.2 mph
(S 15 kph)
- 10SM
12:53
Clear
84°F / 29°C 59°F / 15°C 43% 29.92 in
(1013 mb)
SSE 9.2 mph
(SSE 15 kph)
- 10SM
11:53
Clear
81°F / 27°C 59°F / 15°C 48% 29.92 in
(1013 mb)
S 5.8 mph
(S 9 kph)
- 10SM
10:53
Clear
79°F / 26°C 59°F / 15°C 51% 29.95 in
(1014 mb)
S 8.1 mph
(S 13 kph)
- 10SM
09:53
Clear
73°F / 23°C 57°F / 14°C 57% 29.98 in
(1015 mb)
Variable 6.9 mph
(Variable 11 kph)
- 10SM
08:53
Clear
70°F / 21°C 57°F / 14°C 64% 29.98 in
(1015 mb)
SE 10.4 mph
(SE 17 kph)
- 10SM
07:53
Clear
66°F / 19°C 57°F / 14°C 73% 29.98 in
(1015 mb)
SSE 9.2 mph
(SSE 15 kph)
- 10SM
06:53
Clear
64°F / 18°C 57°F / 14°C 78% 29.98 in
(1015 mb)
SSE 9.2 mph
(SSE 15 kph)
- 10SM
05:53
Clear
64°F / 18°C 57°F / 14°C 78% 29.95 in
(1014 mb)
SE 10.4 mph
(SE 17 kph)
- 10SM
04:53
Clear
63°F / 17°C 57°F / 14°C 83% 29.95 in
(1014 mb)
SSE 10.4 mph
(SSE 17 kph)
- 10SM
03:53
Clear
63°F / 17°C 57°F / 14°C 83% 29.92 in
(1013 mb)
SSE 9.2 mph
(SSE 15 kph)
- 10SM
02:53
Clear
64°F / 18°C 57°F / 14°C 78% 29.92 in
(1013 mb)
SSE 10.4 mph
(SSE 17 kph)
- 10SM
01:53
Clear
64°F / 18°C 57°F / 14°C 78% 29.92 in
(1013 mb)
SSE 9.2 mph
(SSE 15 kph)
- 10SM
00:53
Clear
66°F / 19°C 57°F / 14°C 73% 29.92 in
(1013 mb)
SSE 11.5 mph
(SSE 19 kph)
- 10SM
Time Weather Temperature Dewpoint Humidity Pressure Winds Precip Visibility


Weather for websites

WeatherForYou.com, LLC is not responsible for any damages or problems caused by this service. Current weather conditions are obtained from the closest station including government and personal stations which may have varying degrees of accuracy. Weather forecasts are derived from the NOAA NDFD. Like all things, this site belongs to Jesus Christ... He just trusts me to maintain it. If you have any questions or comments email webmaster@weatherforyou.com

Copyright © 2014, WeatherForYou.com LLC. All rights reserved.